Weather History for Hamilton, ON

Change the Weather History Date:

Friday, June 6, 2014

  Actual Average Record
Temperature  
Mean Temperature 62 °F -  
Max Temperature 77 °F - - ()
Min Temperature 46 °F - - ()
Degree Days  
Heating Degree Days 4    
Growing Degree Days 12 (Base 50)    
Moisture  
Dew Point 46 °F    
Average Humidity 57    
Maximum Humidity 92    
Minimum Humidity 21    
Precipitation  
Precipitation 0.00 in - - ()
Sea Level Pressure  
Sea Level Pressure 29.95 in    
Wind  
Wind Speed 3 mph ()    
Max Wind Speed 6 mph    
Max Gust Speed -    
T = Trace of Precipitation, MM = Missing Value Source: Averaged Metar Reports

Daily Weather History Graph

Daily Weather History Graph

Search for Another Location

Airport:

Trip Planner

Search our weather history database for the weather conditions in past years. The results will help you decide how hot, cold, wet, or windy it might be!

Date:

Astronomy

Jun. 06, 2014 Rise Set
Actual Time 5:40 AM EDT 8:56 PM EDT
Civil Twilight 5:05 AM EDT 9:31 PM EDT
Nautical Twilight 4:19 AM EDT 10:17 PM EDT
Astronomical Twilight 3:24 AM EDT 11:13 PM EDT
Moon 2:03 PM EDT (6/6) 1:42 AM EDT (6/6)
Length of Visible Light 16h 26m
Length of Day
15h 16m
First Quarter, 58% of the Moon is Illuminated
Jun 6
First Quarter
Jun 13
Full
Jun 19
Last Quarter
Jun 27
New
Jul 5
First Quarter

Hourly Weather History & Observations

Time (EDT) Temp. Dew Point Humidity Pressure Visibility Wind Dir Wind Speed Gust Speed Precip Events Conditions
12:00 AM 49.5 °F 45.9 °F 87% 29.93 in - WNW 2.3 mph - N/A   Unknown
1:00 AM 47.3 °F 45.0 °F 92% 29.93 in - West 1.2 mph - N/A   Unknown
2:00 AM 48 °F 45 °F 86% 29.93 in - WNW 2.3 mph - -  
2:00 AM 47.8 °F 45.1 °F 90% 29.93 in - WNW 2.3 mph - N/A   Unknown
3:00 AM 47.3 °F 45.0 °F 92% 29.94 in - WSW 1.2 mph - N/A   Unknown
4:00 AM 51.6 °F 46.0 °F 81% 29.94 in - NW 2.3 mph - N/A   Unknown
5:00 AM 48.4 °F 45.3 °F 89% 29.94 in - West 1.2 mph - N/A   Unknown
6:00 AM 47.8 °F 45.5 °F 92% 29.94 in - WNW 1.2 mph - N/A   Unknown
7:00 AM 52.9 °F 46.9 °F 80% 29.97 in - West 2.3 mph - N/A   Unknown
8:00 AM 57 °F 48 °F 65% 29.99 in - WSW 2.3 mph - -  
8:00 AM 56.8 °F 48.4 °F 73% 29.99 in - WSW 2.3 mph - N/A   Unknown
9:00 AM 64.4 °F 49.6 °F 59% 29.99 in - WNW 4.6 mph - N/A   Unknown
10:00 AM 67.6 °F 46.4 °F 46% 29.98 in - WNW 5.8 mph - N/A   Unknown
11:00 AM 70.0 °F 45.7 °F 42% 29.97 in - West 3.5 mph - N/A   Unknown
12:00 PM 73.2 °F 44.6 °F 36% 29.96 in - NW 4.6 mph - N/A   Unknown
1:00 PM 74.7 °F 45.5 °F 35% 29.96 in - WNW 4.6 mph - N/A   Unknown
2:00 PM 74 °F 42 °F 21% 29.95 in - WNW 4.6 mph - -  
2:00 PM 73.9 °F 41.7 °F 31% 29.95 in - WNW 4.6 mph - N/A   Unknown
3:00 PM 76.6 °F 46.4 °F 34% 29.94 in - WNW 5.8 mph - N/A   Unknown
4:00 PM 76.6 °F 41.9 °F 29% 29.94 in - WNW 5.8 mph - N/A   Unknown
5:00 PM 77.5 °F 42.8 °F 29% 29.94 in - NNW 3.5 mph - N/A   Unknown
6:00 PM 77.7 °F 44.1 °F 30% 29.93 in - WNW 3.5 mph - N/A   Unknown
7:00 PM 75.9 °F 43.3 °F 31% 29.93 in - WNW 3.5 mph - N/A   Unknown
8:00 PM 75 °F 45 °F 23% 29.93 in - WNW 3.5 mph - -  
8:00 PM 74.7 °F 44.8 °F 34% 29.93 in - WNW 3.5 mph - N/A   Unknown
9:00 PM 66.7 °F 47.8 °F 51% 29.94 in - NNW 2.3 mph - N/A   Unknown
10:00 PM 59.7 °F 50.0 °F 70% 29.97 in - WNW 3.5 mph - N/A   Unknown
11:00 PM 58.5 °F 50.5 °F 75% 29.98 in - NW 2.3 mph - N/A   Unknown